FW1568 Weather Reports


time (UTC)temp
C
wind
direction
speed
KPH
gust
KPH
rain 1hr
cm
rain 24hr
cm
rain mn
cm
humidity
%
barometer
mb
20260504081543 3 220 11.3 37.0 0.03 1.83 0.18 89 978.2
20260504050020 3 194 11.3 32.2 0.05 1.70 0.05 89 975.0
20260504044517 3 138 11.3 38.6 0.05 1.68 0.05 89 975.9
20260504043017 3 151 8.0 41.8 0.03 1.65 0.03 89 976.9
20260504041513 3 148 11.3 40.2 0.00 1.65 0.00 88 977.8
20260504040010 4 173 14.5 32.2 0.00 1.65 0.00 88 978.2
20260504034507 4 188 11.3 43.5 0.03 1.65 0.00 87 978.9
20260504033007 4 155 16.1 33.8 0.03 1.65 0.00 87 979.4
20260504031503 5 263 14.5 38.6 0.03 1.65 0.00 86 980.2
20260504030058 5 190 12.9 32.2 0.03 1.65 1.65 87 980.8
20260504024614 5 149 12.9 35.4 0.00 1.63 1.63 88 981.6
20260504023054 5 151 8.0 24.1 0.00 1.63 1.63 88 982.1
20260504021552 5 177 9.7 40.2 0.00 1.63 1.63 89 983.1
20260504020049 6 210 14.5 33.8 0.03 1.63 1.63 90 983.6
20260504014547 6 252 9.7 37.0 0.05 1.63 1.63 91 984.1
20260504013044 5 180 9.7 30.6 0.08 1.63 1.63 91 984.3
20260504011543 5 98 9.7 27.4 0.10 1.63 1.63 91 984.8
20260504010040 5 135 12.9 29.0 0.10 1.57 1.57 90 985.3
20260504004545 4 126 16.1 30.6 0.15 1.55 1.55 90 986.2
20260504003040 4 103 20.9 41.8 0.23 1.55 1.55 91 986.8
20260504001540 3 100 12.9 37.0 0.33 1.52 1.52 90 987.9
20260504000051 4 65 11.3 27.4 0.48 1.42 1.42 91 988.5
20260503234528 3 23 8.0 33.8 0.58 1.42 1.42 90 989.1
20260503233025 3 92 11.3 24.1 0.51 1.30 1.30 91 990.0
20260503231521 3 75 19.3 37.0 0.43 1.17 1.17 91 991.4
20260503230022 3 119 9.7 25.7 0.33 0.99 0.99 91 992.4
20260503224515 3 104 12.9 22.5 0.28 0.84 0.84 90 993.6
20260503223010 3 77 9.7 29.0 0.33 0.79 0.79 90 994.3
20260503221508 3 66 11.3 27.4 0.43 0.71 0.71 90 995.1
20260503220005 3 90 9.7 20.9 0.48 0.66 0.66 90 995.7
20260503214503 3 100 12.9 24.1 0.46 0.56 0.56 90 995.9
20260503213003 2 94 11.3 30.6 0.33 0.43 0.43 90 996.3
20260503211620 2 103 14.5 29.0 0.20 0.28 0.28 90 996.9
20260503211501 2 92 12.9 29.0 0.20 0.28 0.28 90 996.9
20260503210058 2 99 11.3 29.0 0.13 0.18 0.18 90 997.4
20260503204555 2 112 9.7 24.1 0.05 0.10 0.10 90 998.7
20260503203106 2 115 8.0 25.7 0.03 0.08 0.08 89 999.3
20260503201554 2 157 9.7 25.7 0.03 0.08 0.08 89 1000.6
20260503200048 2 186 8.0 27.4 0.00 0.05 0.05 89 1001.6
20260503194552 2 68 9.7 24.1 0.00 0.05 0.05 88 1002.0
20260503193047 2 87 11.3 24.1 0.05 0.05 0.05 87 1002.0
20260503191542 3 60 8.0 17.7 0.05 0.05 0.05 86 1002.5
20260503190040 3 52 6.4 17.7 0.05 0.05 0.05 86 1004.0
20260503184536 4 38 6.4 16.1 0.05 0.05 0.05 85 1004.3
20260503183033 5 101 6.4 19.3 0.03 0.03 0.03 83 1005.8
20260503181531 5 25 6.4 14.5 0.00 0.00 0.00 81 1005.8
20260503180031 5 62 6.4 16.1 0.00 0.00 0.00 78 1006.6
20260503174525 5 115 6.4 16.1 0.00 0.00 0.00 76 1007.7
20260503173039 6 127 3.2 12.9 0.00 0.00 0.00 77 1008.0
20260503171533 6 97 4.8 11.3 0.00 0.00 0.00 76 1008.8